TimeCST,TemperatureF,Dew PointF,Humidity,Sea Level PressureIn,VisibilityMPH,Wind Direction,Wind SpeedMPH,Gust SpeedMPH,PrecipitationIn,Events,Conditions,WindDirDegrees,DateUTC
12:15 AM,62.6,62.6,100,30.00,2.5,Calm,Calm,-,N/A,,Scattered Clouds,0,2013-02-08 06:15:00
12:55 AM,60.8,60.8,100,30.00,0.5,Calm,Calm,-,N/A,Fog,Fog,0,2013-02-08 06:55:00
1:15 AM,60.8,60.8,100,30.01,0.8,Calm,Calm,-,N/A,,Overcast,0,2013-02-08 07:15:00
1:35 AM,60.8,60.8,100,30.01,0.5,NNW,3.5,-,N/A,Fog,Fog,330,2013-02-08 07:35:00
1:55 AM,62.6,60.8,94,30.02,1.5,NNW,4.6,-,N/A,,Overcast,330,2013-02-08 07:55:00
2:15 AM,62.6,62.6,100,30.02,2.5,NNW,3.5,-,N/A,,Scattered Clouds,330,2013-02-08 08:15:00
2:35 AM,62.6,62.6,100,30.02,0.5,NNW,5.8,-,N/A,Fog,Fog,330,2013-02-08 08:35:00
2:55 AM,62.6,62.6,100,30.02,0.5,NNW,8.1,-,N/A,Fog,Fog,340,2013-02-08 08:55:00
3:15 AM,62.6,62.6,100,30.03,0.8,NNW,9.2,-,N/A,,Overcast,330,2013-02-08 09:15:00
3:35 AM,62.6,62.6,100,30.04,7.0,North,11.5,-,N/A,,Overcast,350,2013-02-08 09:35:00
3:55 AM,60.8,59.0,94,30.04,10.0,NNE,16.1,-,N/A,,Scattered Clouds,20,2013-02-08 09:55:00
4:15 AM,60.8,55.4,82,30.05,10.0,NNE,16.1,20.7,N/A,,Clear,20,2013-02-08 10:15:00
4:35 AM,60.8,55.4,82,30.06,10.0,NNE,17.3,-,N/A,,Clear,20,2013-02-08 10:35:00
4:55 AM,60.8,53.6,77,30.07,10.0,NNE,18.4,24.2,N/A,,Clear,20,2013-02-08 10:55:00
5:15 AM,60.8,51.8,72,30.08,10.0,NNE,15.0,23.0,N/A,,Clear,20,2013-02-08 11:15:00
5:35 AM,60.8,53.6,77,30.09,10.0,NNE,16.1,-,N/A,,Clear,20,2013-02-08 11:35:00
5:55 AM,59.0,51.8,77,30.11,10.0,NNE,16.1,21.9,N/A,,Clear,20,2013-02-08 11:55:00
6:15 AM,59.0,51.8,77,30.12,10.0,NNE,15.0,20.7,N/A,,Clear,20,2013-02-08 12:15:00
6:35 AM,59.0,51.8,77,30.13,10.0,NNE,16.1,19.6,N/A,,Clear,30,2013-02-08 12:35:00
6:55 AM,59.0,51.8,77,30.13,10.0,NNE,12.7,-,N/A,,Clear,20,2013-02-08 12:55:00
7:15 AM,57.2,51.8,82,30.13,10.0,NNE,18.4,25.3,N/A,,Clear,20,2013-02-08 13:15:00
7:35 AM,57.2,50.0,77,30.14,10.0,NNE,17.3,24.2,N/A,,Clear,20,2013-02-08 13:35:00
7:55 AM,55.4,50.0,82,30.15,10.0,NNE,17.3,24.2,N/A,,Clear,20,2013-02-08 13:55:00
8:15 AM,55.4,50.0,82,30.16,10.0,NNE,17.3,23.0,N/A,,Clear,20,2013-02-08 14:15:00
8:35 AM,55.4,50.0,82,30.17,10.0,NNE,16.1,23.0,N/A,,Clear,20,2013-02-08 14:35:00
8:55 AM,55.4,50.0,82,30.19,10.0,NNE,12.7,21.9,N/A,,Clear,20,2013-02-08 14:55:00
9:15 AM,59.0,50.0,72,30.18,10.0,NNE,15.0,-,N/A,,Clear,20,2013-02-08 15:15:00
9:35 AM,59.0,50.0,72,30.18,10.0,NNE,17.3,-,N/A,,Clear,20,2013-02-08 15:35:00
9:55 AM,59.0,51.8,77,30.19,10.0,NE,15.0,20.7,N/A,,Clear,40,2013-02-08 15:55:00
10:15 AM,59.0,51.8,77,30.19,10.0,NNE,12.7,-,N/A,,Clear,30,2013-02-08 16:15:00
10:35 AM,59.0,51.8,77,30.19,10.0,NNE,16.1,-,N/A,,Clear,30,2013-02-08 16:35:00
10:55 AM,60.8,51.8,72,30.19,10.0,NE,17.3,20.7,N/A,,Clear,40,2013-02-08 16:55:00
11:15 AM,62.6,51.8,68,30.18,10.0,North,15.0,-,N/A,,Clear,10,2013-02-08 17:15:00
11:35 AM,60.8,51.8,72,30.17,10.0,North,16.1,-,N/A,,Clear,10,2013-02-08 17:35:00
11:55 AM,62.6,51.8,68,30.16,10.0,North,13.8,-,N/A,,Clear,10,2013-02-08 17:55:00
12:15 PM,62.6,51.8,68,30.16,10.0,NNE,13.8,-,N/A,,Clear,20,2013-02-08 18:15:00
12:35 PM,64.4,51.8,64,30.15,10.0,North,12.7,18.4,N/A,,Clear,10,2013-02-08 18:35:00
12:55 PM,64.4,53.6,68,30.14,10.0,NNE,11.5,18.4,N/A,,Clear,20,2013-02-08 18:55:00
1:15 PM,66.2,51.8,60,30.13,10.0,North,10.4,16.1,N/A,,Clear,10,2013-02-08 19:15:00
1:35 PM,66.2,51.8,60,30.13,10.0,North,9.2,-,N/A,,Clear,10,2013-02-08 19:35:00
1:55 PM,64.4,51.8,64,30.12,10.0,North,10.4,-,N/A,,Clear,360,2013-02-08 19:55:00
2:15 PM,64.4,51.8,64,30.11,10.0,North,9.2,-,N/A,,Clear,10,2013-02-08 20:15:00
2:35 PM,68.0,51.8,56,30.11,10.0,NNE,6.9,-,N/A,,Clear,20,2013-02-08 20:35:00
2:55 PM,68.0,50.0,52,30.10,10.0,NE,5.8,-,N/A,,Clear,40,2013-02-08 20:55:00
3:15 PM,68.0,51.8,56,30.10,10.0,NNE,5.8,-,N/A,,Clear,20,2013-02-08 21:15:00
3:35 PM,68.0,53.6,60,30.09,10.0,ESE,5.8,-,N/A,,Clear,110,2013-02-08 21:35:00
3:55 PM,64.4,51.8,64,30.09,10.0,East,6.9,-,N/A,,Clear,90,2013-02-08 21:55:00
4:15 PM,66.2,51.8,60,30.09,10.0,East,5.8,-,N/A,,Scattered Clouds,90,2013-02-08 22:15:00
4:35 PM,64.4,53.6,68,30.09,10.0,East,5.8,-,N/A,,Clear,80,2013-02-08 22:35:00
4:55 PM,64.4,55.4,73,30.09,10.0,East,9.2,-,N/A,,Clear,100,2013-02-08 22:55:00
5:15 PM,62.6,53.6,72,30.09,10.0,East,6.9,-,N/A,,Clear,100,2013-02-08 23:15:00
5:55 PM,62.6,53.6,72,30.09,10.0,East,5.8,-,N/A,,Clear,100,2013-02-08 23:55:00
6:15 PM,60.8,55.4,82,30.09,10.0,East,5.8,-,N/A,,Clear,90,2013-02-09 00:15:00
6:35 PM,60.8,55.4,82,30.09,10.0,East,4.6,-,N/A,,Clear,90,2013-02-09 00:35:00
6:55 PM,60.8,55.4,82,30.10,10.0,East,4.6,-,N/A,,Clear,90,2013-02-09 00:55:00
7:15 PM,60.8,55.4,82,30.10,10.0,East,5.8,-,N/A,,Scattered Clouds,100,2013-02-09 01:15:00
7:35 PM,60.8,55.4,82,30.09,10.0,East,6.9,-,N/A,,Mostly Cloudy,100,2013-02-09 01:35:00
7:55 PM,60.8,55.4,82,30.09,10.0,East,6.9,-,N/A,,Mostly Cloudy,100,2013-02-09 01:55:00
8:15 PM,60.8,55.4,82,30.10,10.0,ESE,9.2,-,N/A,,Scattered Clouds,110,2013-02-09 02:15:00
8:35 PM,60.8,55.4,82,30.10,10.0,ESE,8.1,-,N/A,,Clear,110,2013-02-09 02:35:00
8:55 PM,60.8,55.4,82,30.10,10.0,East,10.4,-,N/A,,Clear,100,2013-02-09 02:55:00
9:15 PM,60.8,57.2,88,30.10,10.0,East,11.5,-,N/A,,Clear,100,2013-02-09 03:15:00
9:35 PM,60.8,57.2,88,30.10,10.0,East,11.5,16.1,N/A,,Clear,100,2013-02-09 03:35:00
9:55 PM,60.8,57.2,88,30.10,10.0,East,9.2,-,N/A,,Clear,100,2013-02-09 03:55:00
10:15 PM,60.8,57.2,88,30.09,10.0,East,9.2,-,N/A,,Clear,100,2013-02-09 04:15:00
10:35 PM,60.8,57.2,88,30.09,10.0,East,9.2,-,N/A,,Clear,100,2013-02-09 04:35:00
10:55 PM,60.8,57.2,88,30.09,10.0,East,12.7,16.1,N/A,,Scattered Clouds,90,2013-02-09 04:55:00
11:15 PM,60.8,57.2,88,30.08,10.0,East,9.2,16.1,N/A,,Scattered Clouds,90,2013-02-09 05:15:00
11:35 PM,60.8,57.2,88,30.08,10.0,East,8.1,-,N/A,,Clear,90,2013-02-09 05:35:00
11:55 PM,60.8,57.2,88,30.08,10.0,East,9.2,-,N/A,,Clear,100,2013-02-09 05:55:00